Location: Newark
(47.3150°N, 5.1150°E)
Time: 07:07:44
(UTC+00:00)

Envisat - Pass Details

Date: 29 October 2019
Orbit: 764 x 766 km, 98.1° (Epoch: 12 November)

Event Time Altitude Azimuth Distance (km) Brightness Sun altitude
Rises 18:35:30 0° 197° (SSW) 3,220 6.4 -22.1°
Reaches altitude 10° 18:38:08 10° 209° (SSW) 2,298 5.8 -22.6°
Maximum altitude 18:42:24 27° 267° (W) 1,448 5.1 -23.3°
Drops below altitude 10° 18:46:41 10° 324° (NW) 2,312 6.0 -24.0°
Sets 18:49:21 0° 337° (NNW) 3,243 6.6 -24.5°
